Regional Weather Roundup
Issued by NWS Wilmington, NC

Home | Current Version | Previous Version | Text Only | Print | Product List | Glossary On
Versions: 1 2 3 4 5 6 7 8 9 10 11 12 13 14 15 16 17 18 19 20 21 22 23 24 25 26 27 28 29 30 31 32 33 34 35 36 37 38 39 40 41 42 43 44 45 46 47 48 49 50
000
ASUS42 KILM 060513
RWRILM
RWRILM
REGIONAL HOURLY WEATHER ROUNDUP
NATIONAL WEATHER SERVICE WILMINGTON NC
100 AM EDT MON JUL 06 2015

NOTE: "FAIR" INDICATES FEW OR NO CLOUDS BELOW 12,000 FEET WITH NO
SIGNIFICANT WEATHER AND/OR OBSTRUCTIONS TO VISIBILITY.

...............WFO WILMINGTON COUNTY WARNING AREA...............

......COASTAL NC AND SC COUNTIES......

CITY           SKY/WX    TMP DP  RH WIND       PRES   REMARKS
WILMINGTON     CLEAR     78  74  87 SW8       30.11S
N MYRTLE BEACH CLOUDY    81  76  84 S10       30.11S
MYRTLE BEACH   MOCLDY    81  73  78 S9        30.12F

......INLAND NC AND SC COUNTIES.......

CITY           SKY/WX    TMP DP  RH WIND       PRES   REMARKS
LUMBERTON      MOCLDY    75  71  87 S3        30.10S
ELIZABETHTOWN  PTCLDY    75  74  95 CALM      30.11S
WHITEVILLE     MOCLDY    76  73  88 CALM      30.11S
FLORENCE       PTCLDY    75  73  93 CALM      30.10F
DARLINGTON     CLEAR     73  70  88 S5        30.11F

....................REST OF NORTH CAROLINA......................

.........EASTERN NC.........

CITY           SKY/WX    TMP DP  RH WIND       PRES   REMARKS
CAPE HATTERAS  PTCLDY    77  74  90 SW9       30.13F
JACKSONVILLE   CLEAR     73  66  78 CALM      30.12S
MOREHEAD CITY  PTCLDY    79  76  90 SW12      30.12F
KENANSVILLE    CLEAR     73  71  93 CALM      30.12S
NEW BERN       MOCLDY    77  74  90 S5        30.13S
ELIZABETH CITY FOG       76  72  87 NW6       30.12S VSB 1/2

.........CENTRAL NC.........

CITY           SKY/WX    TMP DP  RH WIND       PRES   REMARKS
RALEIGH DURHAM MOCLDY    71  69  93 CALM      30.10S
ROCKY MOUNT    CLOUDY    71  70  96 CALM      30.11F
ROANOKE RAPIDS NOT AVBL
FAYETTEVILLE   PTCLDY    76  70  82 S7        30.09F
HOFFMAN        PTCLDY    73  71  95 SE2       30.12F

.........WESTERN NC.........

CITY           SKY/WX    TMP DP  RH WIND       PRES   REMARKS
CHARLOTTE      PTCLDY    71  68  90 S9        30.08F
GREENSBORO     MOCLDY    71  69  93 S9        30.08F
HICKORY        NOT AVBL
BOONE          NOT AVBL
ASHEVILLE      NOT AVBL

.....................REST OF SOUTH CAROLINA.....................

.........EASTERN SC.........

CITY           SKY/WX    TMP DP  RH WIND       PRES   REMARKS
CHARLESTON     PTCLDY    74  70  87 SW3       30.12S
BEAUFORT MCAS  CLEAR     71  69  93 SW6       30.13S
HILTON HEAD    CLEAR     73  72  94 SW3       30.14S

.........CENTRAL SC.........

CITY           SKY/WX    TMP DP  RH WIND       PRES   REMARKS
COLUMBIA       PTCLDY    72  69  90 SE3       30.09S
ORANGEBURG     CLOUDY    71  69  93 S6        30.12S FOG
SUMTER SHAW    PTCLDY    72  69  89 S5        30.09S

.........WESTERN SC.........

CITY           SKY/WX    TMP DP  RH WIND       PRES   REMARKS
GREENVILLE     NOT AVBL
ROCK HILL      CLEAR     70  69  97 S5        30.08F
ANDERSON       PTCLDY    72  66  81 W5        30.10F
CLEMSON        NOT AVBL
GREENWOOD      CLEAR     72  69  90 SW5       30.11F


...................COASTAL AND OFFSHORE REPORTS..................

................LOCAL PIERS AND NC RESERVE................


STATION/POSITION TIME  SKY/WX   TEMP    WIND        PRES    VSBY
                                AIR SEA DIR/SP/G
                 (UTC)          (F)     (DEG/KT/KT) (MB)    (MI)
JOHNY MRCER PIER 0400            79 80  220/  8/ 10 1019.5F
NC RESRV MASNBRO NOT AVBL
OCEAN CREST PIER NOT AVBL
SPRINGMAID  PIER 0400            81 83  180/ 13/ 14 1019.8R


................COASTAL AND OFFSHORE BUOYS................


STATION/POSITION TIME  SKY/WX   TEMP    WIND        PRES    VSBY
                                AIR SEA DIR/SP/G
                 (UTC)          (F)     (DEG/KT/KT) (MB)    (MI)
DIMNDSHOAL 41025 0450            81 81  220/ 16/ 17 1019.8F
WVE H/P(F/S)=  3/ 8 WND WVE H/P(F/S)=  2/ 4 SWL H/P/D(F/S/D)=  2/130/ 8

CAPE LOOKOUT     0500            79     210/  8/ 10 1019.8F
ONSLOW BAY 41036 NOT AVBL
5 WRITEBCH 41038 0408            80 78  210/ 12/ 14 1019.8F
MASONBORO  41110 0419               78                N/A
WVE H/P(F/S)=  3/ 5 WND WVE H/P(F/S)=  3/ 5

WILM HARBR 41108 0411               81                N/A
WVE H/P(F/S)=  3/ 4 WND WVE H/P(F/S)=  3/ 4

27WRITEBCH 41037 0400               80  210/ 10/ 12   N/A
FRYING PAN 41013 0450            81 79  180/ 10/ 12 1020.3F
WVE H/P(F/S)=  3/ 5 WND WVE H/P(F/S)=  2/ 5 SWL H/P/D(F/S/D)=  2/170/ 5

SUNST NRSH 41024 0408            80     210/ 12/ 16 1019.4S
CAPRS NRSH 41029 0408            81     240/ 10/ 14 1019.9R
EDISTO     41004 0450            81 82  210/ 10/ 12 1019.6R
WVE H/P(F/S)=  3/ 8 WND WVE H/P(F/S)=  2/ 4 SWL H/P/D(F/S/D)=  2/ 8



..........OFFSHORE BUOYS BEYOND 100 NM OFFSHORE...........
.....IN A TRIANGLE---HAT TO BERMUDA TO BAHAMAS TO HAT.....


STATION/POSITION TIME  SKY/WX   TEMP    WIND        PRES    VSBY
                                AIR SEA DIR/SP/G
                 (UTC)          (F)     (DEG/KT/KT) (MB)    (MI)
150E HAT   41001 NOT AVBL
W BERMUDA  41048 0450            81 81  190/  8/  8 1023.3F
WVE H/P(F/S)=  4/ 9 WND WVE H/P(F/S)=  2/ 4 SWL H/P/D(F/S/D)=  3/120/ 9

ATLANTIC S 41049 0450            82 84   70/ 12/ 14 1023.6F
WVE H/P(F/S)=  4/ 8 WND WVE H/P(F/S)=  3/ 5 SWL H/P/D(F/S/D)=  3/120/ 8

E BAHAMAS  41046 0450            82 83   90/ 16/ 17 1021.7F
WVE H/P(F/S)=  5/ 8 WND WVE H/P(F/S)=  3/ 6 SWL H/P/D(F/S/D)=  3/120/ 8

NE BAHAMAS 41047 0450            83 84  130/  8/ 10 1022.4F
WVE H/P(F/S)=  4/ 8 WND WVE H/P(F/S)=  2/ 4 SWL H/P/D(F/S/D)=  3/120/ 8

120E CANVRL41010 0420            82 84  150/ 12/ 16 1021.8F

END


USA.gov is the U.S. government's official web portal to all federal, state and local government web resources and services.